Location: Piotrkow Trybunalski
(51.4000°N, 19.6830°E)
Time: 14:19:12
(UTC+01:00)

Vanguard 2 - Pass Details

Date: 12 February 2023
Orbit: 553 x 2927 km, 32.9° (Epoch: 24 March)

Event Time Altitude Azimuth Distance (km) Brightness Sun altitude
Rises 18:02:20 0° 201° (SSW) 4,022 11.6 -11.7°
Reaches altitude 10° 18:06:00 10° 181° (S) 3,448 11.0 -12.2°
Maximum altitude 18:11:23 17° 144° (SE) 3,448 10.6 -13.1°
Enters shadow 18:17:37 11° 112° (ESE) 4,486 10.9 -14.0°
Drops below altitude 10° 18:18:15 10° 110° (ESE) 4,622 - -14.1°
Sets 18:24:29 0° 95° (E) 6,098 - -15.1°
